Regional Weather Roundup
Issued by NWS

Home | Current Version | Previous Version | Text Only | Print | Product List | Glossary On
Versions: 1 2 3 4 5 6 7 8 9 10 11 12 13 14 15 16 17 18 19 20 21 22 23 24 25 26 27
000
ASUS45 KREV 211010
RWRNV
NEVADA REGIONAL WEATHER ROUNDUP
NATIONAL WEATHER SERVICE RENO NV
300 AM PDT MON APR 21 2014

NOTE: "FAIR" INDICATES FEW OR NO CLOUDS BELOW 12,000 FEET WITH NO
SIGNIFICANT WEATHER AND/OR OBSTRUCTIONS TO VISIBILITY.

NVZ001-003-004-211100-
WESTERN NEVADA

CITY           SKY/WX    TMP DP  RH WIND       PRES   REMARKS
RENO           FAIR      49  26  41 CALM      30.16F
CARSON CITY    FAIR      43  21  42 CALM      30.17F
MINDEN         CLEAR     39  28  65 CALM      30.19F
SLIDE MTN        N/A     37  16  41 SE17        N/A
FALLON         FAIR      39  18  42 S7        30.14S
LOVELOCK       FAIR      34   7  32 MISG      30.14F
HAWTHORNE      CLEAR     52  19  28 CALM      30.15S
$$

NVZ002-CAZ072-073-211100-
NORTHERN AND CENTRAL SIERRA

CITY           SKY/WX    TMP DP  RH WIND       PRES   REMARKS
S. LAKE TAHOE  FAIR      34  27  75 CALM      30.22F
TRUCKEE        FAIR      32  32 100 CALM      30.22S
SQUAW VLY 8000   N/A     39  23  52 VRB3        N/A
SUSANVILLE     CLEAR     39  32  75 W3        30.13F
BLUE CANYON    FAIR      55  30  38 CALM      30.18F
MAMMOTH LAKES  FAIR      39  19  45 CALM      30.26F
BRIDGEPORT     FAIR      31  19  61 CALM      30.24F
$$

NVZ030-031-036-211100-
NORTHERN NEVADA

CITY           SKY/WX    TMP DP  RH WIND       PRES   REMARKS
ELKO           FAIR      31  20  63 CALM      30.22S
WINNEMUCCA     FAIR      47  17  30 NE10      30.17F
WENDOVER       FAIR      46  18  31 NE7       30.21S
$$

NVZ035-037-211100-
CENTRAL NEVADA

CITY           SKY/WX    TMP DP  RH WIND       PRES   REMARKS
ELY            FAIR      33  20  58 S13       30.25S
EUREKA           N/A     37  21  52 CALM      30.22S
$$

NVZ013-014-211100-
SOUTH CENTRAL NEVADA

CITY           SKY/WX    TMP DP  RH WIND       PRES   REMARKS
TONOPAH        FAIR      50  15  24 N14       30.17F
$$

NVZ017-020-022-211100-
SOUTHERN NEVADA

CITY           SKY/WX    TMP DP  RH WIND       PRES   REMARKS
LAS VEGAS      FAIR      74  30  19 S12       29.96S
N. LAS VEGAS   FAIR      69  31  24 CALM      29.99S
NELLIS AFB     FAIR      68  32  26 NE3       29.98S
HENDERSON      HVY RAIN  69  30  23 SW5       30.03S
MERCURY        FAIR      61  25  25 E6        30.04F
$$



USA.gov is the U.S. government's official web portal to all federal, state and local government web resources and services.